owner,sensor,date,latitude,longitude,air_temperature,qcFlag 
FWRI,ioos:station:FWRI:OTB:1,2013-01-01T00:59:00Z,27.9320,-82.6475,17.135,1111122 
FWRI,ioos:station:FWRI:OTB:1,2013-01-01T01:59:00Z,27.9320,-82.6475,16.62,1111122 
FWRI,ioos:station:FWRI:OTB:1,2013-01-01T02:59:00Z,27.9320,-82.6475,16.34,1111122 
FWRI,ioos:station:FWRI:OTB:1,2013-01-01T03:59:00Z,27.9320,-82.6475,16.215,1111122 
FWRI,ioos:station:FWRI:OTB:1,2013-01-01T04:59:00Z,27.9320,-82.6475,16.11667,1111122 
FWRI,ioos:station:FWRI:OTB:1,2013-01-01T05:59:00Z,27.9320,-82.6475,15.75333,1111122 
FWRI,ioos:station:FWRI:OTB:1,2013-01-01T06:59:00Z,27.9320,-82.6475,15.49667,1111122 
FWRI,ioos:station:FWRI:OTB:1,2013-01-01T07:59:00Z,27.9320,-82.6475,15.57,1111122 
FWRI,ioos:station:FWRI:OTB:1,2013-01-01T08:59:00Z,27.9320,-82.6475,16.1,1111122 
FWRI,ioos:station:FWRI:OTB:1,2013-01-01T09:59:00Z,27.9320,-82.6475,16.04667,1111122 
FWRI,ioos:station:FWRI:OTB:1,2013-01-01T10:59:00Z,27.9320,-82.6475,15.73167,1111122 
FWRI,ioos:station:FWRI:OTB:1,2013-01-01T11:59:00Z,27.9320,-82.6475,15.82,1111122 
FWRI,ioos:station:FWRI:OTB:1,2013-01-01T12:59:00Z,27.9320,-82.6475,15.79667,1111122 
FWRI,ioos:station:FWRI:OTB:1,2013-01-01T13:59:00Z,27.9320,-82.6475,16.21167,1111122 
FWRI,ioos:station:FWRI:OTB:1,2013-01-01T14:59:00Z,27.9320,-82.6475,16.65333,1111122 
FWRI,ioos:station:FWRI:OTB:1,2013-01-01T15:59:00Z,27.9320,-82.6475,17.46167,1111122 
FWRI,ioos:station:FWRI:OTB:1,2013-01-01T16:59:00Z,27.9320,-82.6475,18.535,1111122 
FWRI,ioos:station:FWRI:OTB:1,2013-01-01T17:59:00Z,27.9320,-82.6475,20.79333,1111122 
FWRI,ioos:station:FWRI:OTB:1,2013-01-01T18:59:00Z,27.9320,-82.6475,22.185,1111122 
FWRI,ioos:station:FWRI:OTB:1,2013-01-01T19:59:00Z,27.9320,-82.6475,22.24,1111122 
FWRI,ioos:station:FWRI:OTB:1,2013-01-01T20:59:00Z,27.9320,-82.6475,22.26,1111122 
FWRI,ioos:station:FWRI:OTB:1,2013-01-01T21:59:00Z,27.9320,-82.6475,22.15167,1111122 
FWRI,ioos:station:FWRI:OTB:1,2013-01-01T22:59:00Z,27.9320,-82.6475,21.26666,1111122 
FWRI,ioos:station:FWRI:OTB:1,2013-01-01T23:59:00Z,27.9320,-82.6475,21.16833,1111122 
FWRI,ioos:station:FWRI:OTB:1,2013-01-02T00:59:00Z,27.9320,-82.6475,20.88166,1111122 
FWRI,ioos:station:FWRI:OTB:1,2013-01-02T01:59:00Z,27.9320,-82.6475,20.17333,1111122 
FWRI,ioos:station:FWRI:OTB:1,2013-01-02T02:59:00Z,27.9320,-82.6475,19.97833,1111122 
FWRI,ioos:station:FWRI:OTB:1,2013-01-02T03:59:00Z,27.9320,-82.6475,19.58,1111122 
FWRI,ioos:station:FWRI:OTB:1,2013-01-02T04:59:00Z,27.9320,-82.6475,18.64667,1111122 
FWRI,ioos:station:FWRI:OTB:1,2013-01-02T05:59:00Z,27.9320,-82.6475,17.935,1111122 
FWRI,ioos:station:FWRI:OTB:1,2013-01-02T06:59:00Z,27.9320,-82.6475,17.61167,1111122 
FWRI,ioos:station:FWRI:OTB:1,2013-01-02T07:59:00Z,27.9320,-82.6475,18.09333,1111122 
FWRI,ioos:station:FWRI:OTB:1,2013-01-02T08:59:00Z,27.9320,-82.6475,17.87667,1111122 
FWRI,ioos:station:FWRI:OTB:1,2013-01-02T09:59:00Z,27.9320,-82.6475,18.335,1111122 
FWRI,ioos:station:FWRI:OTB:1,2013-01-02T10:59:00Z,27.9320,-82.6475,18.78833,1111122 
FWRI,ioos:station:FWRI:OTB:1,2013-01-02T11:59:00Z,27.9320,-82.6475,18.325,1111122 
FWRI,ioos:station:FWRI:OTB:1,2013-01-02T12:59:00Z,27.9320,-82.6475,18.19666,1111122 
FWRI,ioos:station:FWRI:OTB:1,2013-01-02T13:59:00Z,27.9320,-82.6475,18.21167,1111122 
FWRI,ioos:station:FWRI:OTB:1,2013-01-02T14:59:00Z,27.9320,-82.6475,19.22833,1111122 
FWRI,ioos:station:FWRI:OTB:1,2013-01-02T15:59:00Z,27.9320,-82.6475,21.21,1111122 
FWRI,ioos:station:FWRI:OTB:1,2013-01-02T16:59:00Z,27.9320,-82.6475,22.49167,1111122 
FWRI,ioos:station:FWRI:OTB:1,2013-01-02T17:59:00Z,27.9320,-82.6475,22.73833,1111122 
FWRI,ioos:station:FWRI:OTB:1,2013-01-02T18:59:00Z,27.9320,-82.6475,22.17833,1111122 
FWRI,ioos:station:FWRI:OTB:1,2013-01-02T19:59:00Z,27.9320,-82.6475,22.435,1111122 
FWRI,ioos:station:FWRI:OTB:1,2013-01-02T20:59:00Z,27.9320,-82.6475,22.10666,1111122 
FWRI,ioos:station:FWRI:OTB:1,2013-01-02T21:59:00Z,27.9320,-82.6475,21.65167,1111122 
FWRI,ioos:station:FWRI:OTB:1,2013-01-02T22:59:00Z,27.9320,-82.6475,20.40667,1111122 
FWRI,ioos:station:FWRI:OTB:1,2013-01-02T23:59:00Z,27.9320,-82.6475,19.69666,1111122 
FWRI,ioos:station:FWRI:OTB:1,2013-01-03T00:59:00Z,27.9320,-82.6475,19.27833,1111122 
FWRI,ioos:station:FWRI:OTB:1,2013-01-03T01:59:00Z,27.9320,-82.6475,19.08667,1111122 
FWRI,ioos:station:FWRI:OTB:1,2013-01-03T02:59:00Z,27.9320,-82.6475,18.75833,1111122 
FWRI,ioos:station:FWRI:OTB:1,2013-01-03T03:59:00Z,27.9320,-82.6475,17.87167,1111122 
FWRI,ioos:station:FWRI:OTB:1,2013-01-03T04:59:00Z,27.9320,-82.6475,17.955,1111122 
FWRI,ioos:station:FWRI:OTB:1,2013-01-03T05:59:00Z,27.9320,-82.6475,18.03,1111122 
FWRI,ioos:station:FWRI:OTB:1,2013-01-03T06:59:00Z,27.9320,-82.6475,18.60333,1111122 
FWRI,ioos:station:FWRI:OTB:1,2013-01-03T07:59:00Z,27.9320,-82.6475,18.735,1111122 
FWRI,ioos:station:FWRI:OTB:1,2013-01-03T08:59:00Z,27.9320,-82.6475,18.64167,1111122 
FWRI,ioos:station:FWRI:OTB:1,2013-01-03T09:59:00Z,27.9320,-82.6475,18.42667,1111122 
FWRI,ioos:station:FWRI:OTB:1,2013-01-03T10:59:00Z,27.9320,-82.6475,17.97,1111122 
FWRI,ioos:station:FWRI:OTB:1,2013-01-03T11:59:00Z,27.9320,-82.6475,17.54667,1111122 
FWRI,ioos:station:FWRI:OTB:1,2013-01-03T12:59:00Z,27.9320,-82.6475,17.60167,1111122 
FWRI,ioos:station:FWRI:OTB:1,2013-01-03T13:59:00Z,27.9320,-82.6475,17.655,1111122 
FWRI,ioos:station:FWRI:OTB:1,2013-01-03T14:59:00Z,27.9320,-82.6475,17.905,1111122 
FWRI,ioos:station:FWRI:OTB:1,2013-01-03T15:59:00Z,27.9320,-82.6475,18.12167,1111122 
FWRI,ioos:station:FWRI:OTB:1,2013-01-03T16:59:00Z,27.9320,-82.6475,18.265,1111122 
FWRI,ioos:station:FWRI:OTB:1,2013-01-03T17:59:00Z,27.9320,-82.6475,18.54333,1111122 
FWRI,ioos:station:FWRI:OTB:1,2013-01-03T18:59:00Z,27.9320,-82.6475,18.63,1111122 
FWRI,ioos:station:FWRI:OTB:1,2013-01-03T19:59:00Z,27.9320,-82.6475,18.94166,1111122 
FWRI,ioos:station:FWRI:OTB:1,2013-01-03T20:59:00Z,27.9320,-82.6475,18.84833,1111122 
FWRI,ioos:station:FWRI:OTB:1,2013-01-03T21:59:00Z,27.9320,-82.6475,17.72333,1111122 
FWRI,ioos:station:FWRI:OTB:1,2013-01-03T22:59:00Z,27.9320,-82.6475,17.63333,1111122 
FWRI,ioos:station:FWRI:OTB:1,2013-01-03T23:59:00Z,27.9320,-82.6475,17.6,1111122 
FWRI,ioos:station:FWRI:OTB:1,2013-01-04T00:59:00Z,27.9320,-82.6475,16.74667,1111122 
FWRI,ioos:station:FWRI:OTB:1,2013-01-04T01:59:00Z,27.9320,-82.6475,16.07833,1111122 
FWRI,ioos:station:FWRI:OTB:1,2013-01-04T02:59:00Z,27.9320,-82.6475,16.02167,1111122 
FWRI,ioos:station:FWRI:OTB:1,2013-01-04T03:59:00Z,27.9320,-82.6475,15.93333,1111122 
FWRI,ioos:station:FWRI:OTB:1,2013-01-04T04:59:00Z,27.9320,-82.6475,15.915,1111122 
FWRI,ioos:station:FWRI:OTB:1,2013-01-04T05:59:00Z,27.9320,-82.6475,15.895,1111122 
FWRI,ioos:station:FWRI:OTB:1,2013-01-04T06:59:00Z,27.9320,-82.6475,15.67833,1111122 
FWRI,ioos:station:FWRI:OTB:1,2013-01-04T07:59:00Z,27.9320,-82.6475,15.11,1111122 
FWRI,ioos:station:FWRI:OTB:1,2013-01-04T08:59:00Z,27.9320,-82.6475,14.89667,1111122 
FWRI,ioos:station:FWRI:OTB:1,2013-01-04T09:59:00Z,27.9320,-82.6475,14.71,1111122 
FWRI,ioos:station:FWRI:OTB:1,2013-01-04T10:59:00Z,27.9320,-82.6475,14.05667,1111122 
FWRI,ioos:station:FWRI:OTB:1,2013-01-04T11:59:00Z,27.9320,-82.6475,13.94,1111122 
FWRI,ioos:station:FWRI:OTB:1,2013-01-04T12:59:00Z,27.9320,-82.6475,13.855,1111122 
FWRI,ioos:station:FWRI:OTB:1,2013-01-04T13:59:00Z,27.9320,-82.6475,13.74667,1111122 
FWRI,ioos:station:FWRI:OTB:1,2013-01-04T14:59:00Z,27.9320,-82.6475,13.77833,1111122 
FWRI,ioos:station:FWRI:OTB:1,2013-01-04T15:59:00Z,27.9320,-82.6475,14.19167,1111122 
FWRI,ioos:station:FWRI:OTB:1,2013-01-04T16:59:00Z,27.9320,-82.6475,14.56333,1111122 
FWRI,ioos:station:FWRI:OTB:1,2013-01-04T17:59:00Z,27.9320,-82.6475,15.02667,1111122 
FWRI,ioos:station:FWRI:OTB:1,2013-01-04T18:59:00Z,27.9320,-82.6475,15.64333,1111122 
FWRI,ioos:station:FWRI:OTB:1,2013-01-04T19:59:00Z,27.9320,-82.6475,15.58333,1111122 
FWRI,ioos:station:FWRI:OTB:1,2013-01-04T20:59:00Z,27.9320,-82.6475,15.73167,1111122 
FWRI,ioos:station:FWRI:OTB:1,2013-01-04T21:59:00Z,27.9320,-82.6475,15.67833,1111122 
FWRI,ioos:station:FWRI:OTB:1,2013-01-04T22:59:00Z,27.9320,-82.6475,15.59833,1111122 
FWRI,ioos:station:FWRI:OTB:1,2013-01-04T23:59:00Z,27.9320,-82.6475,15.48333,1111122 
FWRI,ioos:station:FWRI:OTB:1,2013-01-05T00:59:00Z,27.9320,-82.6475,15.54833,1111122 
FWRI,ioos:station:FWRI:OTB:1,2013-01-05T01:59:00Z,27.9320,-82.6475,15.59833,1111122 
FWRI,ioos:station:FWRI:OTB:1,2013-01-05T02:59:00Z,27.9320,-82.6475,15.71833,1111122 
FWRI,ioos:station:FWRI:OTB:1,2013-01-05T03:59:00Z,27.9320,-82.6475,15.85333,1111122 
FWRI,ioos:station:FWRI:OTB:1,2013-01-05T04:59:00Z,27.9320,-82.6475,15.88167,1111122 
FWRI,ioos:station:FWRI:OTB:1,2013-01-05T05:59:00Z,27.9320,-82.6475,15.44333,1111122 
FWRI,ioos:station:FWRI:OTB:1,2013-01-05T06:59:00Z,27.9320,-82.6475,15.10667,1111122 
FWRI,ioos:station:FWRI:OTB:1,2013-01-05T07:59:00Z,27.9320,-82.6475,14.99833,1111122 
FWRI,ioos:station:FWRI:OTB:1,2013-01-05T08:59:00Z,27.9320,-82.6475,14.80833,1111122 
FWRI,ioos:station:FWRI:OTB:1,2013-01-05T09:59:00Z,27.9320,-82.6475,14.275,1111122 
FWRI,ioos:station:FWRI:OTB:1,2013-01-05T10:59:00Z,27.9320,-82.6475,14.07,1111122 
FWRI,ioos:station:FWRI:OTB:1,2013-01-05T11:59:00Z,27.9320,-82.6475,14.045,1111122 
FWRI,ioos:station:FWRI:OTB:1,2013-01-05T12:59:00Z,27.9320,-82.6475,13.97833,1111122 
FWRI,ioos:station:FWRI:OTB:1,2013-01-05T13:59:00Z,27.9320,-82.6475,13.62333,1111122 
FWRI,ioos:station:FWRI:OTB:1,2013-01-05T14:59:00Z,27.9320,-82.6475,13.93,1111122 
FWRI,ioos:station:FWRI:OTB:1,2013-01-05T15:59:00Z,27.9320,-82.6475,14.89333,1111122 
FWRI,ioos:station:FWRI:OTB:1,2013-01-05T16:59:00Z,27.9320,-82.6475,16.10667,1111122 
FWRI,ioos:station:FWRI:OTB:1,2013-01-05T17:59:00Z,27.9320,-82.6475,17.57333,1111122 
FWRI,ioos:station:FWRI:OTB:1,2013-01-05T18:59:00Z,27.9320,-82.6475,19.18667,1111122 
FWRI,ioos:station:FWRI:OTB:1,2013-01-05T19:59:00Z,27.9320,-82.6475,18.93,1111122 
FWRI,ioos:station:FWRI:OTB:1,2013-01-05T20:59:00Z,27.9320,-82.6475,19.41,1111122 
FWRI,ioos:station:FWRI:OTB:1,2013-01-05T21:59:00Z,27.9320,-82.6475,19.455,1111122 
FWRI,ioos:station:FWRI:OTB:1,2013-01-05T22:59:00Z,27.9320,-82.6475,18.72,1111122 
FWRI,ioos:station:FWRI:OTB:1,2013-01-05T23:59:00Z,27.9320,-82.6475,18.75,1111122 
FWRI,ioos:station:FWRI:OTB:1,2013-01-06T00:59:00Z,27.9320,-82.6475,18.875,1111122 
FWRI,ioos:station:FWRI:OTB:1,2013-01-06T01:59:00Z,27.9320,-82.6475,18.61167,1111122 
FWRI,ioos:station:FWRI:OTB:1,2013-01-06T02:59:00Z,27.9320,-82.6475,18.73833,1111122 
FWRI,ioos:station:FWRI:OTB:1,2013-01-06T03:59:00Z,27.9320,-82.6475,18.62667,1111122 
FWRI,ioos:station:FWRI:OTB:1,2013-01-06T04:59:00Z,27.9320,-82.6475,18.36,1111122 
FWRI,ioos:station:FWRI:OTB:1,2013-01-06T05:59:00Z,27.9320,-82.6475,18.38333,1111122 
FWRI,ioos:station:FWRI:OTB:1,2013-01-06T06:59:00Z,27.9320,-82.6475,18.39333,1111122 
FWRI,ioos:station:FWRI:OTB:1,2013-01-06T07:59:00Z,27.9320,-82.6475,18.09167,1111122 
FWRI,ioos:station:FWRI:OTB:1,2013-01-06T08:59:00Z,27.9320,-82.6475,17.84333,1111122 
FWRI,ioos:station:FWRI:OTB:1,2013-01-06T09:59:00Z,27.9320,-82.6475,17.60666,1111122 
FWRI,ioos:station:FWRI:OTB:1,2013-01-06T10:59:00Z,27.9320,-82.6475,17.25666,1111122 
FWRI,ioos:station:FWRI:OTB:1,2013-01-06T11:59:00Z,27.9320,-82.6475,17.07833,1111122 
FWRI,ioos:station:FWRI:OTB:1,2013-01-06T12:59:00Z,27.9320,-82.6475,17.19166,1111122 
FWRI,ioos:station:FWRI:OTB:1,2013-01-06T13:59:00Z,27.9320,-82.6475,17.555,1111122 
FWRI,ioos:station:FWRI:OTB:1,2013-01-06T14:59:00Z,27.9320,-82.6475,17.77333,1111122 
FWRI,ioos:station:FWRI:OTB:1,2013-01-06T15:59:00Z,27.9320,-82.6475,18.055,1111122 
FWRI,ioos:station:FWRI:OTB:1,2013-01-06T16:59:00Z,27.9320,-82.6475,18.44833,1111122 
FWRI,ioos:station:FWRI:OTB:1,2013-01-06T17:59:00Z,27.9320,-82.6475,19.16,1111122 
FWRI,ioos:station:FWRI:OTB:1,2013-01-06T18:59:00Z,27.9320,-82.6475,20.02667,1111122 
FWRI,ioos:station:FWRI:OTB:1,2013-01-06T19:59:00Z,27.9320,-82.6475,21.04833,1111122 
FWRI,ioos:station:FWRI:OTB:1,2013-01-06T20:59:00Z,27.9320,-82.6475,20.725,1111122 
FWRI,ioos:station:FWRI:OTB:1,2013-01-06T21:59:00Z,27.9320,-82.6475,19.89167,1111122 
FWRI,ioos:station:FWRI:OTB:1,2013-01-06T22:59:00Z,27.9320,-82.6475,18.78,1111122 
FWRI,ioos:station:FWRI:OTB:1,2013-01-06T23:59:00Z,27.9320,-82.6475,18.72167,1111122 
FWRI,ioos:station:FWRI:OTB:1,2013-01-07T00:59:00Z,27.9320,-82.6475,18.69333,1111122 
FWRI,ioos:station:FWRI:OTB:1,2013-01-07T01:59:00Z,27.9320,-82.6475,18.74833,1111122 
FWRI,ioos:station:FWRI:OTB:1,2013-01-07T02:59:00Z,27.9320,-82.6475,18.73833,1111122 
FWRI,ioos:station:FWRI:OTB:1,2013-01-07T03:59:00Z,27.9320,-82.6475,18.53666,1111122 
FWRI,ioos:station:FWRI:OTB:1,2013-01-07T04:59:00Z,27.9320,-82.6475,18.655,1111122 
FWRI,ioos:station:FWRI:OTB:1,2013-01-07T05:59:00Z,27.9320,-82.6475,18.61833,1111122 
FWRI,ioos:station:FWRI:OTB:1,2013-01-07T06:59:00Z,27.9320,-82.6475,18.615,1111122 
FWRI,ioos:station:FWRI:OTB:1,2013-01-07T07:59:00Z,27.9320,-82.6475,18.64167,1111122 
FWRI,ioos:station:FWRI:OTB:1,2013-01-07T08:59:00Z,27.9320,-82.6475,18.31,1111122 
FWRI,ioos:station:FWRI:OTB:1,2013-01-07T09:59:00Z,27.9320,-82.6475,17.88,1111122 
FWRI,ioos:station:FWRI:OTB:1,2013-01-07T10:59:00Z,27.9320,-82.6475,17.19,1111122 
FWRI,ioos:station:FWRI:OTB:1,2013-01-07T11:59:00Z,27.9320,-82.6475,16.95,1111122 
FWRI,ioos:station:FWRI:OTB:1,2013-01-07T12:59:00Z,27.9320,-82.6475,16.55,1111122 
FWRI,ioos:station:FWRI:OTB:1,2013-01-07T13:59:00Z,27.9320,-82.6475,15.845,1111122 
FWRI,ioos:station:FWRI:OTB:1,2013-01-07T14:59:00Z,27.9320,-82.6475,15.525,1111122 
FWRI,ioos:station:FWRI:OTB:1,2013-01-07T15:59:00Z,27.9320,-82.6475,15.43,1111122 
FWRI,ioos:station:FWRI:OTB:1,2013-01-07T16:59:00Z,27.9320,-82.6475,16.11833,1111122 
FWRI,ioos:station:FWRI:OTB:1,2013-01-07T17:59:00Z,27.9320,-82.6475,16.82333,1111122 
FWRI,ioos:station:FWRI:OTB:1,2013-01-07T18:59:00Z,27.9320,-82.6475,17.48667,1111122 
FWRI,ioos:station:FWRI:OTB:1,2013-01-07T19:59:00Z,27.9320,-82.6475,18.11167,1111122 
FWRI,ioos:station:FWRI:OTB:1,2013-01-07T20:59:00Z,27.9320,-82.6475,18.54833,1111122 
FWRI,ioos:station:FWRI:OTB:1,2013-01-07T21:59:00Z,27.9320,-82.6475,18.0,1111122 
FWRI,ioos:station:FWRI:OTB:1,2013-01-07T22:59:00Z,27.9320,-82.6475,16.83333,1111122 
FWRI,ioos:station:FWRI:OTB:1,2013-01-07T23:59:00Z,27.9320,-82.6475,16.945,1111122 
FWRI,ioos:station:FWRI:OTB:1,2013-01-08T00:59:00Z,27.9320,-82.6475,17.17667,1111122 
FWRI,ioos:station:FWRI:OTB:1,2013-01-08T01:59:00Z,27.9320,-82.6475,17.39667,1111122 
FWRI,ioos:station:FWRI:OTB:1,2013-01-08T02:59:00Z,27.9320,-82.6475,17.565,1111122 
FWRI,ioos:station:FWRI:OTB:1,2013-01-08T03:59:00Z,27.9320,-82.6475,17.50167,1111122 
FWRI,ioos:station:FWRI:OTB:1,2013-01-08T04:59:00Z,27.9320,-82.6475,17.50333,1111122 
FWRI,ioos:station:FWRI:OTB:1,2013-01-08T05:59:00Z,27.9320,-82.6475,17.495,1111122 
FWRI,ioos:station:FWRI:OTB:1,2013-01-08T06:59:00Z,27.9320,-82.6475,17.39667,1111122 
FWRI,ioos:station:FWRI:OTB:1,2013-01-08T07:59:00Z,27.9320,-82.6475,17.305,1111122 
FWRI,ioos:station:FWRI:OTB:1,2013-01-08T08:59:00Z,27.9320,-82.6475,17.415,1111122 
FWRI,ioos:station:FWRI:OTB:1,2013-01-08T09:59:00Z,27.9320,-82.6475,17.615,1111122 
FWRI,ioos:station:FWRI:OTB:1,2013-01-08T10:59:00Z,27.9320,-82.6475,17.66333,1111122 
FWRI,ioos:station:FWRI:OTB:1,2013-01-08T11:59:00Z,27.9320,-82.6475,17.775,1111122 
FWRI,ioos:station:FWRI:OTB:1,2013-01-08T12:59:00Z,27.9320,-82.6475,17.7,1111122 
FWRI,ioos:station:FWRI:OTB:1,2013-01-08T13:59:00Z,27.9320,-82.6475,17.81167,1111122 
FWRI,ioos:station:FWRI:OTB:1,2013-01-08T14:59:00Z,27.9320,-82.6475,18.56833,1111122 
FWRI,ioos:station:FWRI:OTB:1,2013-01-08T15:59:00Z,27.9320,-82.6475,19.58333,1111122 
FWRI,ioos:station:FWRI:OTB:1,2013-01-08T16:59:00Z,27.9320,-82.6475,21.11,1111122 
FWRI,ioos:station:FWRI:OTB:1,2013-01-08T17:59:00Z,27.9320,-82.6475,22.48833,1111122 
FWRI,ioos:station:FWRI:OTB:1,2013-01-08T18:59:00Z,27.9320,-82.6475,24.06167,1111122 
FWRI,ioos:station:FWRI:OTB:1,2013-01-08T19:59:00Z,27.9320,-82.6475,25.04,1111122 
FWRI,ioos:station:FWRI:OTB:1,2013-01-08T20:59:00Z,27.9320,-82.6475,26.31,1111122 
FWRI,ioos:station:FWRI:OTB:1,2013-01-08T21:59:00Z,27.9320,-82.6475,24.455,1111122 
FWRI,ioos:station:FWRI:OTB:1,2013-01-08T22:59:00Z,27.9320,-82.6475,24.47333,1111122 
FWRI,ioos:station:FWRI:OTB:1,2013-01-08T23:59:00Z,27.9320,-82.6475,23.33667,1111122 
FWRI,ioos:station:FWRI:OTB:1,2013-01-09T00:59:00Z,27.9320,-82.6475,22.08833,1111122 
FWRI,ioos:station:FWRI:OTB:1,2013-01-09T01:59:00Z,27.9320,-82.6475,21.45333,1111122 
FWRI,ioos:station:FWRI:OTB:1,2013-01-09T02:59:00Z,27.9320,-82.6475,21.46167,1111122 
FWRI,ioos:station:FWRI:OTB:1,2013-01-09T03:59:00Z,27.9320,-82.6475,20.75167,1111122 
FWRI,ioos:station:FWRI:OTB:1,2013-01-09T04:59:00Z,27.9320,-82.6475,20.64333,1111122 
FWRI,ioos:station:FWRI:OTB:1,2013-01-09T05:59:00Z,27.9320,-82.6475,20.58167,1111122 
FWRI,ioos:station:FWRI:OTB:1,2013-01-09T06:59:00Z,27.9320,-82.6475,20.30333,1111122 
FWRI,ioos:station:FWRI:OTB:1,2013-01-09T07:59:00Z,27.9320,-82.6475,20.265,1111122 
FWRI,ioos:station:FWRI:OTB:1,2013-01-09T08:59:00Z,27.9320,-82.6475,20.065,1111122 
FWRI,ioos:station:FWRI:OTB:1,2013-01-09T09:59:00Z,27.9320,-82.6475,19.92833,1111122 
FWRI,ioos:station:FWRI:OTB:1,2013-01-09T10:59:00Z,27.9320,-82.6475,19.83,1111122 
FWRI,ioos:station:FWRI:OTB:1,2013-01-09T11:59:00Z,27.9320,-82.6475,19.79,1111122 
FWRI,ioos:station:FWRI:OTB:1,2013-01-09T12:59:00Z,27.9320,-82.6475,19.84667,1111122 
FWRI,ioos:station:FWRI:OTB:1,2013-01-09T13:59:00Z,27.9320,-82.6475,20.10666,1111122 
FWRI,ioos:station:FWRI:OTB:1,2013-01-09T14:59:00Z,27.9320,-82.6475,20.67667,1111122 
FWRI,ioos:station:FWRI:OTB:1,2013-01-09T15:59:00Z,27.9320,-82.6475,21.52,1111122 
FWRI,ioos:station:FWRI:OTB:1,2013-01-09T16:59:00Z,27.9320,-82.6475,22.15,1111122 
FWRI,ioos:station:FWRI:OTB:1,2013-01-09T17:59:00Z,27.9320,-82.6475,22.99667,1111122 
FWRI,ioos:station:FWRI:OTB:1,2013-01-09T18:59:00Z,27.9320,-82.6475,23.94333,1111122 
FWRI,ioos:station:FWRI:OTB:1,2013-01-09T19:59:00Z,27.9320,-82.6475,24.64,1111122 
FWRI,ioos:station:FWRI:OTB:1,2013-01-09T20:59:00Z,27.9320,-82.6475,24.815,1111122 
FWRI,ioos:station:FWRI:OTB:1,2013-01-09T21:59:00Z,27.9320,-82.6475,25.17,1111122 
FWRI,ioos:station:FWRI:OTB:1,2013-01-09T22:59:00Z,27.9320,-82.6475,24.36833,1111122 
FWRI,ioos:station:FWRI:OTB:1,2013-01-09T23:59:00Z,27.9320,-82.6475,23.43167,1111122 
FWRI,ioos:station:FWRI:OTB:1,2013-01-10T00:59:00Z,27.9320,-82.6475,23.36,1111122 
FWRI,ioos:station:FWRI:OTB:1,2013-01-10T01:59:00Z,27.9320,-82.6475,22.79333,1111122 
FWRI,ioos:station:FWRI:OTB:1,2013-01-10T02:59:00Z,27.9320,-82.6475,22.15833,1111122 
FWRI,ioos:station:FWRI:OTB:1,2013-01-10T03:59:00Z,27.9320,-82.6475,21.625,1111122 
FWRI,ioos:station:FWRI:OTB:1,2013-01-10T04:59:00Z,27.9320,-82.6475,21.23333,1111122 
FWRI,ioos:station:FWRI:OTB:1,2013-01-10T05:59:00Z,27.9320,-82.6475,20.90333,1111122 
FWRI,ioos:station:FWRI:OTB:1,2013-01-10T06:59:00Z,27.9320,-82.6475,21.00333,1111122 
FWRI,ioos:station:FWRI:OTB:1,2013-01-10T07:59:00Z,27.9320,-82.6475,21.235,1111122 
FWRI,ioos:station:FWRI:OTB:1,2013-01-10T08:59:00Z,27.9320,-82.6475,21.385,1111122 
FWRI,ioos:station:FWRI:OTB:1,2013-01-10T09:59:00Z,27.9320,-82.6475,20.87333,1111122 
FWRI,ioos:station:FWRI:OTB:1,2013-01-10T10:59:00Z,27.9320,-82.6475,20.47,1111122 
FWRI,ioos:station:FWRI:OTB:1,2013-01-10T11:59:00Z,27.9320,-82.6475,20.06,1111122 
FWRI,ioos:station:FWRI:OTB:1,2013-01-10T12:59:00Z,27.9320,-82.6475,20.25833,1111122 
FWRI,ioos:station:FWRI:OTB:1,2013-01-10T13:59:00Z,27.9320,-82.6475,20.34667,1111122 
FWRI,ioos:station:FWRI:OTB:1,2013-01-10T14:59:00Z,27.9320,-82.6475,20.92167,1111122 
FWRI,ioos:station:FWRI:OTB:1,2013-01-10T15:59:00Z,27.9320,-82.6475,21.50666,1111122 
FWRI,ioos:station:FWRI:OTB:1,2013-01-10T16:59:00Z,27.9320,-82.6475,22.87167,1111122 
FWRI,ioos:station:FWRI:OTB:1,2013-01-10T17:59:00Z,27.9320,-82.6475,23.38333,1111122 
FWRI,ioos:station:FWRI:OTB:1,2013-01-10T18:59:00Z,27.9320,-82.6475,23.32833,1111122 
FWRI,ioos:station:FWRI:OTB:1,2013-01-10T19:59:00Z,27.9320,-82.6475,23.38,1111122 
FWRI,ioos:station:FWRI:OTB:1,2013-01-10T20:59:00Z,27.9320,-82.6475,24.035,1111122 
FWRI,ioos:station:FWRI:OTB:1,2013-01-10T21:59:00Z,27.9320,-82.6475,23.415,1111122 
FWRI,ioos:station:FWRI:OTB:1,2013-01-10T22:59:00Z,27.9320,-82.6475,23.23333,1111122 
FWRI,ioos:station:FWRI:OTB:1,2013-01-10T23:59:00Z,27.9320,-82.6475,23.13166,1111122 
FWRI,ioos:station:FWRI:OTB:1,2013-01-11T00:59:00Z,27.9320,-82.6475,23.13166,1111122 
FWRI,ioos:station:FWRI:OTB:1,2013-01-11T01:59:00Z,27.9320,-82.6475,22.75167,1111122 
FWRI,ioos:station:FWRI:OTB:1,2013-01-11T02:59:00Z,27.9320,-82.6475,22.37,1111122 
FWRI,ioos:station:FWRI:OTB:1,2013-01-11T03:59:00Z,27.9320,-82.6475,21.51167,1111122 
FWRI,ioos:station:FWRI:OTB:1,2013-01-11T04:59:00Z,27.9320,-82.6475,21.03666,1111122 
FWRI,ioos:station:FWRI:OTB:1,2013-01-11T05:59:00Z,27.9320,-82.6475,20.51,1111122 
FWRI,ioos:station:FWRI:OTB:1,2013-01-11T06:59:00Z,27.9320,-82.6475,20.205,1111122 
FWRI,ioos:station:FWRI:OTB:1,2013-01-11T07:59:00Z,27.9320,-82.6475,20.12333,1111122 
FWRI,ioos:station:FWRI:OTB:1,2013-01-11T08:59:00Z,27.9320,-82.6475,20.12667,1111122 
FWRI,ioos:station:FWRI:OTB:1,2013-01-11T09:59:00Z,27.9320,-82.6475,20.05167,1111122 
FWRI,ioos:station:FWRI:OTB:1,2013-01-11T10:59:00Z,27.9320,-82.6475,19.705,1111122 
FWRI,ioos:station:FWRI:OTB:1,2013-01-11T11:59:00Z,27.9320,-82.6475,19.79333,1111122 
FWRI,ioos:station:FWRI:OTB:1,2013-01-11T12:59:00Z,27.9320,-82.6475,19.98166,1111122 
FWRI,ioos:station:FWRI:OTB:1,2013-01-11T13:59:00Z,27.9320,-82.6475,20.055,1111122 
FWRI,ioos:station:FWRI:OTB:1,2013-01-11T14:59:00Z,27.9320,-82.6475,21.07667,1111122 
FWRI,ioos:station:FWRI:OTB:1,2013-01-11T15:59:00Z,27.9320,-82.6475,22.03333,1111122 
FWRI,ioos:station:FWRI:OTB:1,2013-01-11T16:59:00Z,27.9320,-82.6475,22.96667,1111122 
FWRI,ioos:station:FWRI:OTB:1,2013-01-11T17:59:00Z,27.9320,-82.6475,23.42,1111122 
FWRI,ioos:station:FWRI:OTB:1,2013-01-11T18:59:00Z,27.9320,-82.6475,23.735,1111122 
FWRI,ioos:station:FWRI:OTB:1,2013-01-11T19:59:00Z,27.9320,-82.6475,24.35167,1111122 
FWRI,ioos:station:FWRI:OTB:1,2013-01-11T20:59:00Z,27.9320,-82.6475,24.89,1111122 
FWRI,ioos:station:FWRI:OTB:1,2013-01-11T21:59:00Z,27.9320,-82.6475,24.27333,1111122 
FWRI,ioos:station:FWRI:OTB:1,2013-01-11T22:59:00Z,27.9320,-82.6475,24.29166,1111122 
FWRI,ioos:station:FWRI:OTB:1,2013-01-11T23:59:00Z,27.9320,-82.6475,22.9,1111122 
FWRI,ioos:station:FWRI:OTB:1,2013-01-12T00:59:00Z,27.9320,-82.6475,22.78,1111122 
FWRI,ioos:station:FWRI:OTB:1,2013-01-12T01:59:00Z,27.9320,-82.6475,22.56333,1111122 
FWRI,ioos:station:FWRI:OTB:1,2013-01-12T02:59:00Z,27.9320,-82.6475,22.215,1111122 
FWRI,ioos:station:FWRI:OTB:1,2013-01-12T03:59:00Z,27.9320,-82.6475,21.965,1111122 
FWRI,ioos:station:FWRI:OTB:1,2013-01-12T04:59:00Z,27.9320,-82.6475,21.54833,1111122 
FWRI,ioos:station:FWRI:OTB:1,2013-01-12T05:59:00Z,27.9320,-82.6475,21.17667,1111122 
FWRI,ioos:station:FWRI:OTB:1,2013-01-12T06:59:00Z,27.9320,-82.6475,20.825,1111122 
FWRI,ioos:station:FWRI:OTB:1,2013-01-12T07:59:00Z,27.9320,-82.6475,20.465,1111122 
FWRI,ioos:station:FWRI:OTB:1,2013-01-12T08:59:00Z,27.9320,-82.6475,20.30167,1111122 
FWRI,ioos:station:FWRI:OTB:1,2013-01-12T09:59:00Z,27.9320,-82.6475,20.32,1111122 
FWRI,ioos:station:FWRI:OTB:1,2013-01-12T10:59:00Z,27.9320,-82.6475,20.33833,1111122 
FWRI,ioos:station:FWRI:OTB:1,2013-01-12T11:59:00Z,27.9320,-82.6475,20.27833,1111122 
FWRI,ioos:station:FWRI:OTB:1,2013-01-12T12:59:00Z,27.9320,-82.6475,20.27333,1111122 
FWRI,ioos:station:FWRI:OTB:1,2013-01-12T13:59:00Z,27.9320,-82.6475,20.54833,1111122 
FWRI,ioos:station:FWRI:OTB:1,2013-01-12T14:59:00Z,27.9320,-82.6475,21.04333,1111122 
FWRI,ioos:station:FWRI:OTB:1,2013-01-12T15:59:00Z,27.9320,-82.6475,21.75833,1111122 
FWRI,ioos:station:FWRI:OTB:1,2013-01-12T16:59:00Z,27.9320,-82.6475,22.58833,1111122 
FWRI,ioos:station:FWRI:OTB:1,2013-01-12T17:59:00Z,27.9320,-82.6475,23.53167,1111122 
FWRI,ioos:station:FWRI:OTB:1,2013-01-12T18:59:00Z,27.9320,-82.6475,23.99667,1111122 
FWRI,ioos:station:FWRI:OTB:1,2013-01-12T19:59:00Z,27.9320,-82.6475,24.13833,1111122 